Location: *
(42.3667°N, 14.0667°E)
Time: 05:09:59
(UTC+00:00)

Daily predictions for brighter satellites

Satellite Brightness Start Highest point End
(mag) Time Altitude Azimuth Time Altitude Azimuth Time Altitude Azimuth
Cosmos 2322 4.3 00:04:47 10° NNW 00:09:13 53° N 00:09:13 53° N
Cosmos 2237 Rocket 4.4 00:13:56 10° N 00:18:14 21° NE 00:22:29 10° E
CZ-4C R/B 3.7 00:27:40 26° NW 00:28:27 27° NW 00:33:35 10° NNE
Cosmos 2333 Rocket 2.6 00:23:36 10° NNW 00:29:06 57° ENE 00:29:06 57° ENE
H-2A R/B 3.6 00:34:50 33° NNE 00:34:50 33° NNE 00:37:19 10° N
Cosmos 2219 4.3 00:36:24 36° E 00:36:24 36° E 00:41:22 10° NE
USA 215 4.2 00:34:37 10° NE 00:40:38 41° NNW 00:43:17 29° WNW
Resurs 1-4 Rocket 2.4 00:40:38 10° NNE 00:45:14 62° ENE 00:45:14 62° ENE
Cosmos 1605 Rocket 3.9 00:44:06 10° N 00:50:28 83° E 00:50:48 79° SE
Cosmos 407 Rocket 3.7 00:51:11 10° NNW 00:55:54 66° NNE 00:55:54 66° NNE
Centaur D-1A AC-31 4.3 00:56:34 34° S 01:00:19 39° SE 09:55:40 10° SSE
COSMOS 2455 2.7 00:58:19 10° NNW 01:04:24 88° ENE 01:04:48 79° SE
Cosmos 1339 Rocket 4.4 01:04:31 76° WSW 01:04:51 79° W 01:11:13 10° N
SL-16 R/B 2.4 01:08:11 67° W 01:08:11 67° W 01:14:12 10° NNW
SL-08 R/B 3.9 01:07:50 53° E 01:08:24 56° ENE 01:13:16 10° N
NOSS 0 Rocket 4.0 01:04:19 10° NNW 01:10:30 72° ENE 01:13:10 36° SE
Cosmos 1140 Rocket 3.8 01:06:04 10° NNW 01:11:18 64° ENE 01:12:05 56° ESE
CZ-2D R/B 2.1 01:06:19 10° N 01:11:38 72° WNW 01:11:38 72° WNW
Cosmos 2228 4.2 01:13:38 36° NNW 01:13:38 36° NNW 01:16:23 10° N
Lacrosse 4 Rocket 4.1 01:09:19 10° NW 01:09:26 11° NW 01:09:26 11° NW
USA 267 3.9 01:16:28 38° W 01:16:28 38° W 01:20:41 10° WNW
Cosmos 2058 Rocket 3.6 01:16:31 58° N 01:16:31 58° N 01:20:11 10° N
SeaSat 1 3.0 01:14:06 10° NNE 01:18:39 48° NW 01:18:39 48° NW
Cosmos 1271 Rocket 3.9 01:16:52 10° N 01:19:59 41° NE 01:19:59 41° NE
COSMOS 2428 3.2 01:15:06 10° NNW 01:19:24 46° WNW 01:19:24 46° WNW
Cosmos 2227 Rocket 2.8 01:21:09 43° SE 01:22:11 48° ESE 01:27:36 10° NE
Cosmos 1953 4.2 01:26:18 23° NNW 01:26:18 23° NNW 01:28:12 10° NNW
Cosmos 1726 3.3 01:26:25 42° NNE 01:26:25 42° NNE 01:29:01 10° NNE
Meteor 1-16 Rocket 4.1 01:25:17 73° SW 01:25:50 82° W 01:31:43 10° N
Cosmos 2056 Rocket 3.7 01:31:12 58° WNW 01:31:22 58° WNW 01:36:43 10° NNE
NOSS 3-3 (C) 4.1 01:30:45 52° W 01:31:54 61° NW 01:38:29 10° NNE
NOSS 3-3 (A) 4.1 01:30:45 52° W 01:31:54 61° NW 01:38:29 10° NNE
Cosmos 1190 Rocket 4.2 01:28:05 10° NNW 01:32:42 55° WNW 01:32:42 55° WNW
NPP 4.0 01:28:18 10° N 01:33:27 47° WNW 01:33:38 47° WNW
Genesis I 4.3 01:31:35 10° NNW 01:35:24 44° NE 01:38:18 15° ESE
ADEOS II 2.4 01:30:22 10° NNE 01:35:35 62° ESE 01:36:56 46° SSE
Cosmos 1703 3.9 01:33:05 10° N 01:36:07 52° N 01:36:07 52° N
CZ-4B R/B 2.8 01:38:38 36° NE 01:38:38 36° NE 01:41:09 10° N
Cosmos 2297 Rocket 2.3 01:37:40 52° S 01:38:56 69° ESE 01:44:36 10° NNE
IRS-1C 4.0 01:34:22 10° NNE 01:39:43 81° WNW 01:40:33 64° SW
Cosmos 1727 Rocket 4.1 01:40:46 51° WSW 01:41:54 58° W 01:48:11 10° N
Cosmos 2219 Rocket 3.2 01:39:27 10° NW 01:42:53 30° WNW 01:42:53 30° WNW
Spot 4 Rocket 4.2 01:40:53 10° NNE 01:46:02 69° ESE 01:47:33 45° S
deb Chang Zheng 4 3.9 01:45:41 10° N 01:49:39 51° WNW 01:49:39 51° WNW
Meteor 1-11 4.1 01:50:03 10° NNW 01:55:39 76° W 01:57:44 40° S
Cosmos 2173 Rocket 3.9 01:49:34 10° N 01:55:50 82° W 01:59:13 30° S
ARIANE 5 R/B 2.5 01:53:17 10° N 01:58:33 77° WNW 01:59:58 49° SSW
IRS-1D 4.1 01:56:48 10° N 02:01:37 41° WNW 02:02:25 38° W
Cosmos 2237 Rocket 2.1 01:57:09 10° NNW 02:02:47 66° WSW 02:06:07 25° S
Cosmos 1980 3.6 01:57:53 10° NNW 02:03:28 60° WSW 02:05:57 32° S
CZ-2C R/B 3.2 02:00:44 10° NNE 02:04:44 62° ESE 02:05:54 42° SSE
Cosmos 1689 Rocket 2.5 02:07:33 62° ENE 02:07:33 62° ENE 02:10:29 10° N
SL-16 R/B 2.9 02:03:01 10° NNW 02:08:36 55° ENE 02:14:08 10° SE
ATLAS 2AS CENTAUR R/B 2.7 02:02:46 10° NW 02:10:27 78° WSW 02:17:26 10° SSE
CZ-3 Stage 3 4.2 02:05:10 30° SW 02:10:34 54° SSE 03:03:55 10° ESE
ERBS 4.4 02:11:46 18° NW 02:12:19 18° NNW 02:14:47 10° NNE
Cosmos 2333 Rocket 3.8 02:08:53 10° NW 02:11:03 18° WNW 02:11:03 18° WNW
Cosmos 1420 Rocket 4.2 02:12:16 41° WSW 02:13:45 56° WNW 02:18:57 10° NNE
Cosmos 1356 3.5 02:15:36 53° SSE 02:16:15 72° E 02:19:43 10° NNE
Cosmos 2219 4.1 02:18:20 28° W 02:20:17 36° WNW 02:25:34 10° N
Cosmos 2100 Rocket 4.3 02:15:06 10° NNW 02:21:09 48° W 02:24:12 28° SSW
IDEFIX/ARIANE 42P 4.0 02:17:21 10° NNE 02:22:07 35° E 02:26:51 10° SSE
Cosmos 1802 Rocket 4.0 02:16:19 10° NNW 02:22:23 61° W 02:26:35 21° SSW
Cosmos 2082 3.7 02:20:04 31° SSW 02:22:53 86° WNW 02:28:40 10° NNE
Cosmos 2016 Rocket 3.9 02:17:39 10° NNW 02:23:50 72° W 02:29:09 14° S
Cosmos 1908 4.3 02:24:44 27° WNW 02:24:44 27° WNW 02:27:52 10° NNW
Resurs 1-4 Rocket 3.8 02:21:53 10° NNW 02:25:09 17° WNW 02:26:19 16° WNW
Intercosmos 25 Rocket 3.1 02:25:39 32° S 02:27:14 79° E 02:30:24 10° N
Cosmos 1452 Rocket 3.9 02:27:10 32° WSW 02:29:10 48° WNW 02:34:17 10° N
Cosmos 1812 Rocket 4.0 02:29:51 36° WSW 02:31:00 44° WNW 02:35:13 10° N
BREEZE-M DEB (TANK) 3.3 02:30:59 20° NW 02:32:02 28° N 02:35:35 10° ENE
Cosmos 1461 2.7 02:31:21 38° SW 02:32:50 85° WNW 02:36:52 10° NNE
Cosmos 2233 Rocket 4.2 02:29:50 10° N 02:36:01 72° E 02:42:06 10° SSE
Cosmos 1242 Rocket 2.6 02:32:49 10° NNW 02:36:12 49° W 02:36:52 41° SW
Cosmos 2123 Rocket 4.0 02:33:13 21° SSW 02:37:30 67° W 02:43:44 10° N
CZ-2D R/B 4.2 02:36:52 10° N 02:40:58 39° WNW 02:42:36 28° WSW
Spot 2 4.5 02:37:58 10° NNE 02:43:08 81° WNW 02:47:10 17° SSW
Cosmos 2263 Rocket 4.2 02:43:09 10° SSE 02:47:44 26° ESE 02:52:22 10° NE
CZ-2D R/B 4.3 02:49:27 10° NW 02:50:50 11° NW 02:52:13 10° WNW
Cosmos 1238 Rocket 4.3 02:53:49 10° NNE 02:56:27 28° ENE 02:59:09 10° SE
Cosmos 1300 3.4 02:56:40 24° WSW 02:58:18 34° WNW 03:01:49 10° N
Cosmos 1725 Rocket 4.2 02:52:42 10° NNW 02:58:39 49° W 03:04:32 10° SSW
Cosmos 1455 3.5 02:55:14 10° SSE 02:58:44 40° E 03:02:15 10° NNE
Cosmos 2227 Rocket 3.4 03:02:59 16° WSW 03:06:27 27° NW 03:11:15 10° N
Meteor 1-28 Rocket 3.9 03:07:18 13° SSW 03:10:13 31° W 03:13:34 10° NNW
Cosmos-2242 3.3 03:08:12 13° SSW 03:11:43 46° WNW 03:15:51 10° N
ADEOS II 3.7 03:11:15 10° NNW 03:14:48 19° WNW 03:17:52 12° W
NOSS 3-4 (A) 4.1 03:08:54 10° NW 03:15:43 48° WSW 03:23:04 10° S
NOSS 3-4 (C) 4.1 03:08:59 10° NW 03:15:49 48° WSW 03:23:11 10° S
Cosmos 2058 3.7 03:12:40 10° NNW 03:16:15 30° W 03:19:49 10° SSW
Cosmos 371 Rocket 3.5 03:14:03 10° SSW 03:18:56 79° ESE 03:23:49 10° NNE
Cosmos 1825 3.7 03:17:52 10° N 03:21:28 40° ENE 03:25:02 10° SSE
Cosmos 1408 Rocket 3.5 03:17:35 10° N 03:22:05 79° W 03:26:32 10° S
Cosmos 2297 Rocket 3.8 03:19:30 10° W 03:23:32 20° NW 03:27:42 10° N
ADEOS 3.9 03:20:55 10° N 03:25:54 47° WNW 03:30:52 10° SW
Cosmos 1743 Rocket 4.3 03:23:27 10° N 03:27:52 60° E 03:32:16 10° SSE
Okean 3 Rocket 4.5 03:28:10 10° NNW 03:31:57 29° W 03:35:44 10° SSW
H-2A R/B 3.0 03:28:27 10° N 03:32:34 43° WNW 03:36:30 10° SW
IRIS 4.3 03:34:09 10° W 03:36:48 64° S 03:40:48 10° ESE
Okean O Rocket 4.3 03:34:25 10° NE 03:37:51 22° E 03:41:17 10° SE
Meteor 1-31 Rocket 3.0 03:35:20 10° NNE 03:39:16 75° ESE 03:43:10 10° S
Cosmos 1892 3.3 03:36:26 10° NNW 03:39:58 36° W 03:43:30 10° SSW
Cosmos 1943 3.8 03:36:45 10° NNW 03:42:27 66° ENE 03:48:06 10° SSE
Cosmos 1603 3.7 03:37:49 10° NNW 03:43:28 88° WSW 03:49:07 10° SSE
Cosmos 1302 Rocket 4.1 03:38:36 10° SSW 03:43:48 67° WNW 03:49:00 10° NNE
Cosmos 1766 Rocket 4.5 03:40:47 10° NNW 03:44:40 29° W 03:48:32 10° SSW
Cosmos 332 Rocket 3.8 03:40:43 10° SSW 03:45:31 69° WNW 03:50:20 10° NNE
PAYLOAD A 4.1 03:40:57 10° N 03:46:16 73° WNW 03:51:22 10° SSW
Cosmos 1486 Rocket 4.2 03:41:22 10° NNW 03:46:37 83° ENE 03:51:49 10° SSE
